Franklin, PA

2:19 AM EST on November 18, 2019 (GMT -0500)
Venango Regional

Weather History for KFKL - June, 2019

Change the Weather History Date:

Wednesday, June 12, 2019

  Actual Average Record
Temperature  
Mean Temperature 57 °F -  
Max Temperature 73 °F 78 °F 97 °F (1933)
Min Temperature 42 °F 50 °F 35 °F (1972)
Degree Days  
Heating Degree Days 8    
Growing Degree Days 7 (Base 50)    
Moisture  
Dew Point 46 °F    
Average Humidity 72    
Maximum Humidity 100    
Minimum Humidity 44    
Precipitation  
Precipitation 0.00 in - - ()
Sea Level Pressure  
Sea Level Pressure 30.09 in    
Wind  
Wind Speed 4 mph (SE)    
Max Wind Speed 15 mph    
Max Gust Speed 22 mph    
Visibility 8 miles    
Events      
Averages and records for this station are not official NWS values.
T = Trace of Precipitation, MM = Missing Value Source: NWS Daily Summary

Daily Weather History Graph

Daily Weather History Graph

Search for Another Location

Airport or City:

Astronomy

Jun. 12, 2019 Rise Set
Actual Time 5:45 AM EDT 8:53 PM EDT
Civil Twilight 5:11 AM EDT 9:27 PM EDT
Nautical Twilight 4:28 AM EDT 10:10 PM EDT
Astronomical Twilight 3:37 AM EDT 11:01 PM EDT
Moon 3:55 PM EDT (6/12) 3:03 AM EDT (6/12)
Length of Visible Light 16h 15m
Length of Day
15h 07m
Waxing Gibbous, 76% of the Moon is Illuminated
Jun 12
Waxing Gibbous
Jun 17
Full
Jun 25
Last Quarter
Jul 2
New
Jul 9
First Quarter

Hourly Weather History & Observations

Time (EDT) Temp. Windchill Dew Point Humidity Pressure Visibility Wind Dir Wind Speed Gust Speed Precip Events Conditions
12:56 AM 48.9 °F - 43.0 °F 80% 30.19 in 10.0 mi Calm Calm - N/A   Clear
1:56 AM 46.9 °F - 44.1 °F 90% 30.20 in 10.0 mi NE 3.5 mph - N/A   Clear
2:56 AM 46.9 °F - 45.0 °F 93% 30.18 in 10.0 mi Calm Calm - N/A   Clear
3:56 AM 45.0 °F - 44.1 °F 97% 30.18 in 10.0 mi Calm Calm - N/A   Clear
4:56 AM 43.0 °F 41.3 °F 43.0 °F 100% 30.17 in 7.0 mi NNE 3.5 mph - N/A   Clear
5:18 AM 42.8 °F - 42.8 °F 100% 30.16 in 1.8 mi Calm Calm - N/A   Clear
5:32 AM 42.8 °F 41.1 °F 42.8 °F 100% 30.17 in 2.5 mi ENE 3.5 mph - N/A   Partly Cloudy
5:39 AM 42.8 °F - 41.0 °F 93% 30.16 in 1.0 mi Calm Calm - N/A   Mist
5:46 AM 42.8 °F - 41.0 °F 93% 30.17 in 2.0 mi Calm Calm - N/A   Partly Cloudy
5:56 AM 42.1 °F 40.2 °F 41.0 °F 96% 30.18 in 1.5 mi East 3.5 mph - N/A   Partly Cloudy
6:01 AM 42.8 °F - 42.8 °F 100% 30.17 in 3.0 mi Calm Calm - N/A   Partly Cloudy
6:56 AM 45.0 °F - 44.1 °F 97% 30.18 in 10.0 mi Calm Calm - N/A   Clear
7:56 AM 51.1 °F - 45.0 °F 80% 30.17 in 10.0 mi ESE 4.6 mph - N/A   Clear
8:56 AM 59.0 °F - 48.0 °F 67% 30.17 in 10.0 mi ESE 6.9 mph - N/A   Clear
9:56 AM 64.0 °F - 46.9 °F 54% 30.15 in 10.0 mi SSE 6.9 mph - N/A   Clear
10:56 AM 64.9 °F - 44.1 °F 47% 30.13 in 10.0 mi SSE 12.7 mph - N/A   Clear
11:56 AM 66.9 °F - 46.9 °F 49% 30.10 in 10.0 mi South 10.4 mph - N/A   Clear
12:56 PM 70.0 °F - 50.0 °F 49% 30.07 in 10.0 mi SSE 11.5 mph - N/A   Clear
1:56 PM 70.0 °F - 50.0 °F 49% 30.04 in 10.0 mi SSE 9.2 mph 21.9 mph N/A   Partly Cloudy
2:56 PM 71.1 °F - 48.0 °F 44% 30.02 in 10.0 mi South 10.4 mph - N/A   Scattered Clouds
3:56 PM 72.0 °F - 50.0 °F 46% 30.01 in 10.0 mi SSE 9.2 mph 19.6 mph N/A   Mostly Cloudy
4:56 PM 72.0 °F - 48.9 °F 44% 29.99 in 10.0 mi South 15.0 mph - N/A   Clear
5:56 PM 69.1 °F - 50.0 °F 51% 29.98 in 10.0 mi SSE 8.1 mph 17.3 mph N/A   Clear
6:56 PM 68.0 °F - 50.0 °F 52% 29.96 in 10.0 mi SE 10.4 mph - N/A   Clear
7:56 PM 66.0 °F - 51.1 °F 59% 29.95 in 10.0 mi SE 10.4 mph - N/A   Clear
8:56 PM 64.9 °F - 51.1 °F 61% 29.93 in 10.0 mi SE 9.2 mph - N/A   Clear
9:56 PM 63.0 °F - 51.1 °F 65% 29.91 in 10.0 mi ESE 11.5 mph - N/A   Clear
10:56 PM 63.0 °F - 50.0 °F 63% - 10.0 mi SE 12.7 mph - N/A   Clear
11:56 PM 63.0 °F - 48.9 °F 60% 29.88 in 10.0 mi SE 13.8 mph - N/A   Overcast